Flag for France Weather past 2 weeks in Ajaccio, Corsica, France

Now
84 °F

Sunny.


Feels Like: 88 °F
Forecast: 70 / 86 °F
Wind: 7 mph from Southwest

Location: Ajaccio Airport

Current Time: Jul 7, 2015 at 8:21:54 PM

Latest Report: Jul 7, 2015 at 8:00 PM


Visibility: 10 mi

Pressure: 29.95 "Hg

Humidity: 62%

Dew point: 70 °F

Location of AjaccioLocation

Historic Weather in Ajaccio — Graph

°F

Ajaccio temperature yesterday

Maximum temperature yesterday: 88 °F (at 3:30 PM)
Minimum temperature yesterday: 68 °F (at 6:00 AM)
Average temperature yesterday: 79 °F

Past Weeks' High & Low Weather Summary

 TemperatureHumidityPressure
High95 °F (Jul 2, 4:30 PM)94% (Jun 28, 11:00 PM)30.21 "Hg (Jun 28, 11:00 PM)
Low59 °F (Jun 26, 5:00 AM)28% (Jul 2, 3:30 PM)29.83 "Hg (Jun 23, 4:00 PM)
Average76 °F68%30.06 "Hg
* Reported Jun 22 7:00 PM — Jul 7 7:00 PM, Ajaccio, Weather by CustomWeather, © 2015

Note: Actual official high and low records may vary slightly from our data, if they occured in-between our weather recording intervals... More about our weather records

Advertising

Ajaccio weather history for previous 24 hours

 ConditionsComfort  
Time TempWeatherWind HumidityBarometerVisibility
7:00 PM
Tue, Jul 7
88 °FPassing clouds.7 mph52%29.95 "HgN/A
6:30 PM88 °FPassing clouds.7 mph59%29.95 "HgN/A
6:00 PM88 °FPassing clouds.8 mph59%29.98 "HgN/A
5:30 PM88 °FPassing clouds.9 mph55%29.98 "HgN/A
5:00 PM90 °FPassing clouds.10 mph55%29.98 "HgN/A
4:30 PM90 °FPassing clouds.10 mph55%29.98 "HgN/A
4:00 PM90 °FPassing clouds.9 mph55%29.98 "HgN/A
3:30 PM90 °FPassing clouds.10 mph59%30.01 "HgN/A
3:00 PM90 °FPassing clouds.12 mph59%30.01 "HgN/A
2:30 PM88 °FPassing clouds.13 mph62%30.01 "HgN/A
2:00 PM88 °FPassing clouds.13 mph62%30.01 "HgN/A
1:30 PM86 °FSunny.13 mph70%30.01 "Hg10 mi
1:00 PM86 °FSunny.12 mph70%30.01 "Hg10 mi
12:30 PM86 °FSunny.9 mph66%30.04 "Hg10 mi
12:00 PM86 °FSunny.10 mph66%30.04 "Hg10 mi
11:30 AM84 °FSunny.9 mph74%30.04 "Hg10 mi
11:00 AM82 °FSunny.8 mph74%30.04 "Hg10 mi
10:30 AM82 °FPassing clouds.7 mph70%30.04 "HgN/A
10:00 AM82 °FSunny.6 mph58%30.04 "Hg10 mi
9:30 AM81 °FSunny.5 mph62%30.04 "Hg10 mi
9:00 AM82 °FSunny.2 mph48%30.04 "Hg10 mi
8:30 AM81 °FSunny.1 mph58%30.04 "Hg10 mi
8:00 AM77 °FSunny.3 mph61%30.04 "Hg10 mi
7:00 AM70 °FSunny.5 mph78%30.04 "Hg10 mi
6:30 AM68 °FClear.6 mph78%30.04 "Hg10 mi
6:00 AM70 °FClear.6 mph78%30.04 "Hg10 mi
5:30 AM70 °FClear.7 mph78%30.04 "Hg10 mi
5:00 AM70 °FClear.6 mph78%30.04 "Hg10 mi
4:30 AM70 °FClear.5 mph78%30.04 "Hg10 mi
4:00 AM70 °FClear.5 mph78%30.04 "Hg10 mi
3:30 AM72 °FClear.3 mph73%30.04 "Hg10 mi
3:00 AM72 °FClear.5 mph78%30.04 "Hg10 mi
2:30 AM72 °FClear.6 mph78%30.04 "Hg10 mi
2:00 AM73 °FClear.5 mph74%30.04 "Hg10 mi
1:30 AM73 °FClear.6 mph74%30.04 "Hg10 mi
1:00 AM73 °FClear.6 mph74%30.07 "Hg10 mi
12:30 AM75 °FClear.6 mph74%30.07 "Hg10 mi
12:00 AM75 °FClear.5 mph74%30.07 "Hg10 mi
11:00 PM
Mon, Jul 6
77 °FClear.5 mph79%30.07 "Hg10 mi
10:30 PM77 °FClear.2 mph79%30.07 "Hg10 mi
10:00 PM79 °FSunny.No wind84%30.07 "Hg10 mi
9:30 PM79 °FSunny.3 mph84%30.07 "Hg10 mi
9:00 PM81 °FSunny.3 mph79%30.04 "Hg10 mi
8:30 PM82 °FSunny.5 mph70%30.04 "Hg10 mi
8:00 PM84 °FSunny.5 mph62%30.04 "Hg10 mi
Weather by CustomWeather, © 2015

See weather overviewHow to use our weather pages